Danbury, CT

11:33 PM EDT on September 21, 2017 (GMT -0400)
Danbury Municipal

Weather History for KDXR - September, 2014

Change the Weather History Date:

Wednesday, September 24, 2014

  Actual Average Record
Temperature  
Mean Temperature 56 °F -  
Max Temperature 69 °F 67 °F 87 °F (1959)
Min Temperature 45 °F 46 °F 28 °F (1963)
Degree Days  
Heating Degree Days 8    
Growing Degree Days 6 (Base 50)    
Moisture  
Dew Point 48 °F    
Average Humidity 79    
Maximum Humidity 97    
Minimum Humidity 49    
Precipitation  
Precipitation 0.00 in - - ()
Sea Level Pressure  
Sea Level Pressure 30.54 in    
Wind  
Wind Speed 3 mph (East)    
Max Wind Speed 10 mph    
Max Gust Speed -    
Visibility 9 miles    
Events      
Averages and records for this station are not official NWS values.
T = Trace of Precipitation, MM = Missing Value Source: NWS Daily Summary

Daily Weather History Graph

Daily Weather History Graph

Search for Another Location

Airport or City:

Trip Planner

Search our weather history database for the weather conditions in past years. The results will help you decide how hot, cold, wet, or windy it might be!

Date:

Astronomy

Sep. 24, 2014 Rise Set
Actual Time 6:43 AM EDT 6:47 PM EDT
Civil Twilight 6:15 AM EDT 7:15 PM EDT
Nautical Twilight 5:43 AM EDT 7:47 PM EDT
Astronomical Twilight 5:10 AM EDT 8:20 PM EDT
Moon 7:01 AM EDT (9/24) 6:56 PM EDT (9/24)
Length of Visible Light 12h 59m
Length of Day
12h 04m
New Moon, 0% of the Moon is Illuminated
Sep 24
New Moon
Oct 1
First Quarter
Oct 8
Full
Oct 15
Last Quarter
Oct 23
New

Hourly Weather History & Observations

Time (EDT) Temp. Windchill Dew Point Humidity Pressure Visibility Wind Dir Wind Speed Gust Speed Precip Events Conditions
12:53 AM 48.0 °F - 46.0 °F 93% 30.46 in 10.0 mi WSW 3.5 mph - N/A   Clear
1:53 AM 48.0 °F - 46.0 °F 93% 30.47 in 10.0 mi SW 3.5 mph - N/A   Clear
2:53 AM 46.9 °F - 44.1 °F 90% 30.47 in 10.0 mi Calm Calm - N/A   Clear
3:53 AM 46.0 °F - 44.1 °F 93% 30.48 in 10.0 mi Calm Calm - N/A   Clear
4:53 AM 46.0 °F - 44.1 °F 93% 30.49 in 10.0 mi Calm Calm - N/A   Clear
5:53 AM 45.0 °F - 43.0 °F 93% 30.52 in 9.0 mi Calm Calm - N/A   Clear
6:26 AM 45.0 °F - 42.1 °F 90% 30.52 in 9.0 mi Calm Calm - N/A   Scattered Clouds
6:42 AM 45.0 °F - 43.0 °F 93% 30.53 in 9.0 mi Calm Calm - N/A   Mostly Cloudy
6:53 AM 45.0 °F 43.5 °F 43.0 °F 93% 30.53 in 9.0 mi WSW 3.5 mph - N/A   Mostly Cloudy
7:03 AM 45.0 °F - 44.1 °F 97% 30.53 in 2.0 mi Calm Calm - N/A   Mostly Cloudy
7:10 AM 46.0 °F - 44.1 °F 93% 30.54 in 2.0 mi Calm Calm - N/A   Scattered Clouds
7:25 AM 46.9 °F - 44.1 °F 90% 30.55 in 10.0 mi Calm Calm - N/A   Clear
7:53 AM 50.0 °F - 46.9 °F 89% 30.56 in 10.0 mi Calm Calm - N/A   Clear
8:53 AM 55.0 °F - 50.0 °F 83% 30.57 in 10.0 mi ENE 4.6 mph - N/A   Clear
9:53 AM 57.9 °F - 51.1 °F 78% 30.59 in 10.0 mi NE 6.9 mph - N/A   Clear
10:53 AM 62.1 °F - 51.1 °F 67% 30.59 in 10.0 mi NE 5.8 mph - N/A   Clear
11:53 AM 66.0 °F - 50.0 °F 56% 30.60 in 10.0 mi East 6.9 mph - N/A   Clear
12:53 PM 68.0 °F - 48.0 °F 49% 30.59 in 10.0 mi ENE 9.2 mph - N/A   Clear
1:53 PM 68.0 °F - 48.9 °F 50% 30.59 in 10.0 mi ENE 10.4 mph - N/A   Clear
2:53 PM 68.0 °F - 48.9 °F 50% 30.58 in 10.0 mi SSE 6.9 mph - N/A   Mostly Cloudy
3:53 PM 66.9 °F - 50.0 °F 54% 30.56 in 10.0 mi ENE 8.1 mph - N/A   Mostly Cloudy
4:53 PM 66.0 °F - 51.1 °F 59% 30.56 in 10.0 mi ESE 5.8 mph - N/A   Partly Cloudy
5:53 PM 64.9 °F - 51.1 °F 61% 30.56 in 10.0 mi East 9.2 mph - N/A   Partly Cloudy
6:53 PM 62.1 °F - 52.0 °F 70% 30.56 in 10.0 mi ESE 5.8 mph - N/A   Scattered Clouds
7:53 PM 61.0 °F - 52.0 °F 72% 30.57 in 10.0 mi ESE 4.6 mph - N/A   Partly Cloudy
8:53 PM 59.0 °F - 53.1 °F 81% 30.56 in 10.0 mi ENE 4.6 mph - N/A   Clear
9:53 PM 59.0 °F - 54.0 °F 83% 30.55 in 10.0 mi ENE 5.8 mph - N/A   Clear
10:53 PM 57.9 °F - 53.1 °F 84% 30.54 in 10.0 mi ENE 4.6 mph - N/A   Clear
11:53 PM 57.0 °F - 53.1 °F 87% 30.52 in 10.0 mi ENE 4.6 mph - N/A   Clear